Location: Cointrin
(46.2167°N, 6.1167°E)
Time: 06:41:57
(UTC+00:00)

Cosmos 2333 Rocket - Pass Details

Date: 08 February 2023
Orbit: 837 x 864 km, 70.8° (Epoch: 25 March)

Event Time Altitude Azimuth Distance (km) Brightness Sun altitude
Rises 18:53:53 0° 236° (SW) 3,386 6.2 -21.7°
Reaches altitude 10° 18:56:35 10° 246° (WSW) 2,458 5.5 -22.2°
Maximum altitude 19:01:35 32° 309° (NW) 1,424 3.8 -23.1°
Drops below altitude 10° 19:06:39 10° 12° (NNE) 2,485 4.5 -23.9°
Enters shadow 19:08:08 - 18° (NNE) 2,985 4.9 -24.2°
